Zurück zum Katalog

COSMOS 1275 DEB

AktivPO
NORAD 12700·DEBRIS·🇷🇺 Russia

Gestartet Jun 4, 1981 von Plesetsk Cosmodrome

Loading…

Nächste Überflüge (nächste 24 Stunden)

TLE

AktuellSource: Space-Track

Epoche: Sep 13, 2026, 23:46 UTC

1 12700U 81053AU  26256.99033015  .00000910  00000-0  49256-3 0  9997
2 12700  82.7804 156.7044 0046574 225.1631 134.5757 14.11036747299695

Verfolge COSMOS 1275 DEB in Echtzeit mit AllMySat

Download on the App Store